Hourly Data Report for September 29, 2017

All times are specified in Local Standard Time (LST). Add 1 hour to adjust for Daylight Saving Time where and when it is observed.

SAINT JOHN A
NEW BRUNSWICK

45°18'58.000" N
65°53'24.000" W
108.80 m
8104901
71609
YSJ

Download Data

Hourly Data (September 2017)
Hourly Data Report for September 29, 2017
Temp Definition
°C
Dew Point Temp Definition
°C
Rel Hum Definition
%
Wind Dir Definition
10's deg

Wind Spd Definition
km/h
Visibility Definition
km
Stn Press Definition
kPa
Hmdx Definition


Wind Chill Definition


Weather Definition


TIME
00:00 Legend Double Dagger 9.6 3.3 65 34 26 24.1 99.45     LegendNANA
01:00 Legend Double Dagger 8.9 3.5 69 33 20 24.1 99.47     LegendNANA
02:00 Legend Double Dagger 8.6 3.2 69 33 29 24.1 99.49     Clear
03:00 Legend Double Dagger 7.8 3.0 72 34 20 24.1 99.53     LegendNANA
04:00 Legend Double Dagger 6.6 3.0 78 32 10 24.1 99.57     LegendNANA
05:00 Legend Double Dagger 6.3 3.0 79 33 12 24.1 99.61     Clear
06:00 Legend Double Dagger 5.9 3.1 82 33 12 24.1 99.64     LegendNANA
07:00 Legend Double Dagger 6.2 3.4 82 32 10 24.1 99.71     LegendNANA
08:00 Legend Double Dagger 8.5 3.4 70 34 22 24.1 99.75     Clear
09:00 Legend Double Dagger 9.8 2.5 60 34 27 24.1 99.79     LegendNANA
10:00 Legend Double Dagger 10.8 2.4 56 34 31 24.1 99.83     LegendNANA
11:00 Legend Double Dagger 12.7 3.2 52 35 17 24.1 99.84     Mainly Clear
12:00 Legend Double Dagger 12.7 3.0 51 34 26 24.1 99.87     LegendNANA
13:00 Legend Double Dagger 14.4 3.5 48 36 19 24.1 99.90     LegendNANA
14:00 Legend Double Dagger 12.7 2.0 48 36 27 24.1 99.93     Mainly Clear
15:00 Legend Double Dagger 14.6 2.5 44 34 23 24.1 99.98     LegendNANA
16:00 Legend Double Dagger 13.7 2.0 45 33 22 24.1 100.02     LegendNANA
17:00 Legend Double Dagger 11.8 1.8 50 34 23 24.1 100.11     Mostly Cloudy
18:00 Legend Double Dagger 10.6 2.2 56 34 16 24.1 100.21     LegendNANA
19:00 Legend Double Dagger 9.2 2.9 65 30 9 24.1 100.31     LegendNANA
20:00 Legend Double Dagger 9.5 2.7 62 31 10 24.1 100.38     Mostly Cloudy
21:00 Legend Double Dagger 9.1 3.1 66 34 11 24.1 100.44     LegendNANA
22:00 Legend Double Dagger 8.3 3.8 73 32 7 24.1 100.49     LegendNANA
23:00 Legend Double Dagger 8.6 3.6 71 36 12 24.1 100.54     Mostly Cloudy

Notes on Data Quality.

Legend

  • E = Estimated
  • M = Missing
  • NA = Not Available
  • ‡ = Partner data that is not subject to review by the National Climate Archives
Date modified: